Muskogee, OK

3:56 AM CDT on August 31, 2016 (GMT -0500)
Davis

Weather History for KMKO - April, 2013

Change the Weather History Date:

Monday, April 8, 2013

  Actual Average Record
Temperature  
Mean Temperature 68 °F -  
Max Temperature 73 °F 68 °F 87 °F (2011)
Min Temperature 64 °F 45 °F 24 °F (2007)
Cooling Degree Days 4    
Growing Degree Days 18 (Base 50)    
Moisture  
Dew Point 59 °F    
Average Humidity 74    
Maximum Humidity 84    
Minimum Humidity 64    
Precipitation  
Precipitation 0.00 in - - ()
Sea Level Pressure  
Sea Level Pressure 29.72 in    
Wind  
Wind Speed 12 mph (SSE)    
Max Wind Speed 20 mph    
Max Gust Speed 25 mph    
Visibility 10 miles    
Events      
Averages and records for this station are not official NWS values.
T = Trace of Precipitation, MM = Missing Value Source: NWS Daily Summary

Daily Weather History Graph

Daily Weather History Graph

Search for Another Location

Airport or City:

Trip Planner

Search our weather history database for the weather conditions in past years. The results will help you decide how hot, cold, wet, or windy it might be!

Date:

Astronomy

Apr. 08, 2013 Rise Set
Actual Time 6:57 AM CDT 7:49 PM CDT
Civil Twilight 6:31 AM CDT 8:15 PM CDT
Nautical Twilight 6:01 AM CDT 8:45 PM CDT
Astronomical Twilight 5:29 AM CDT 9:17 PM CDT
Moon 5:45 AM CDT (4/8) 6:26 PM CDT (4/8)
Length of Visible Light 13h 43m
Length of Day
12h 51m
Waning Crescent, 3% of the Moon is Illuminated
Apr 8
Waning Crescent
Apr 10
New
Apr 18
First Quarter
Apr 25
Full
May 2
Last Quarter

Hourly Weather History & Observations

Time (CDT) Temp. Dew Point Humidity Pressure Visibility Wind Dir Wind Speed Gust Speed Precip Events Conditions
12:53 AM 64.9 °F 57.0 °F 75% 29.75 in 10.0 mi SE 10.4 mph - N/A   Overcast
1:53 AM 64.9 °F 57.0 °F 75% 29.74 in 10.0 mi SE 8.1 mph - N/A   Overcast
2:53 AM 64.9 °F 57.0 °F 75% 29.73 in 10.0 mi SE 11.5 mph - N/A   Overcast
3:53 AM 64.9 °F 57.0 °F 75% 29.70 in 10.0 mi SSE 12.7 mph - N/A   Overcast
4:53 AM 66.9 °F 57.9 °F 73% 29.70 in 10.0 mi South 18.4 mph 23.0 mph N/A   Overcast
5:53 AM 66.0 °F 57.9 °F 75% 29.71 in 10.0 mi SSE 11.5 mph - N/A   Overcast
6:53 AM 64.9 °F 57.9 °F 78% 29.74 in 10.0 mi SSE 10.4 mph - N/A   Overcast
7:53 AM 64.9 °F 57.9 °F 78% 29.76 in 10.0 mi SSE 11.5 mph - N/A   Overcast
8:53 AM 64.0 °F 57.9 °F 80% 29.77 in 10.0 mi SSE 10.4 mph - N/A   Overcast
9:53 AM 64.0 °F 59.0 °F 84% 29.77 in 10.0 mi SSE 17.3 mph - N/A   Overcast
10:53 AM 64.9 °F 59.0 °F 81% 29.79 in 10.0 mi SSE 10.4 mph - N/A   Overcast
11:53 AM 66.0 °F 60.1 °F 81% 29.78 in 10.0 mi SSE 13.8 mph 21.9 mph N/A   Overcast
12:53 PM 66.9 °F 60.1 °F 79% 29.76 in 10.0 mi SSE 15.0 mph - N/A   Overcast
1:53 PM 68.0 °F 61.0 °F 78% 29.73 in 10.0 mi SE 13.8 mph - N/A   Overcast
2:19 PM 69.8 °F 60.8 °F 73% 29.74 in 10.0 mi SSE 11.5 mph - N/A   Overcast
2:53 PM 71.1 °F 61.0 °F 70% 29.71 in 10.0 mi SSE 13.8 mph 23.0 mph N/A   Overcast
3:53 PM 73.0 °F 61.0 °F 66% 29.68 in 10.0 mi South 19.6 mph 25.3 mph N/A   Overcast
4:53 PM 73.9 °F 61.0 °F 64% 29.67 in 10.0 mi South 15.0 mph - N/A   Overcast
6:53 PM 72.0 °F 61.0 °F 68% 29.68 in 10.0 mi SSE 11.5 mph - N/A   Overcast
7:53 PM 72.0 °F 60.1 °F 66% 29.68 in 10.0 mi SSE 13.8 mph - N/A   Overcast
8:53 PM 72.0 °F 60.1 °F 66% 29.69 in 10.0 mi SSE 10.4 mph - N/A   Overcast
9:53 PM 71.1 °F 60.1 °F 68% 29.70 in 10.0 mi SSE 11.5 mph - N/A   Overcast
10:53 PM 71.1 °F 60.1 °F 68% 29.70 in 10.0 mi SSE 9.2 mph - N/A   Overcast
11:53 PM 70.0 °F 60.1 °F 71% 29.69 in 10.0 mi SSE 9.2 mph - N/A   Overcast